EHI
0 0 0 0 0 0 0 0 0 0 0 0 2 7 9 9 8 7 8 12 15 14 13 12 14 18 21 21 22 24 27 30 30 30 29 30 30 29 27 26 26 23 20 19
0 0 0 0 0 0 0 0 0 0 0 0 2 6 9 10 10 10 10 11 11 12 12 12 13 17 20 20 20 21 23 24 25 25 26 27 28 26 24 24 24 22 18 17
0 0 0 0 0 0 0 0 0 0 0 0 1 3 5 7 9 11 10 9 8 9 11 10 11 14 16 16 16 16 17 18 19 19 20 22 22 20 19 20 19 17 14 14
0 0 0 0 0 0 0 0 0 0 0 0 0 1 2 4 6 7 7 7 7 9 10 9 9 10 10 10 10 10 10 12 13 15 16 17 16 15 14 15 13 11 10 11
0 0 0 0 0 0 0 0 0 0 0 0 0 0 1 3 4 4 4 6 8 9 9 8 7 5 5 5 5 5 6 7 9 11 13 14 14 12 11 10 9 8 7 7
0 0 0 0 0 0 0 0 0 0 0 0 0 0 1 2 3 4 5 7 9 8 6 5 4 3 3 3 2 2 3 4 5 7 8 10 10 9 8 7 7 7 6 5
0 0 0 0 0 0 0 0 0 0 0 0 0 0 0 1 2 5 8 9 9 7 4 2 2 3 2 1 1 1 1 1 2 3 4 5 6 7 7 7 6 6 5 4
0 0 0 0 0 0 0 0 0 0 0 0 0 0 1 1 2 6 9 10 8 5 3 2 2 2 1 0 0 0 0 0 0 1 1 2 3 5 6 5 4 3 2 1
0 0 0 0 0 0 0 0 0 0 0 0 0 0 1 0 1 5 9 9 6 3 1 1 1 1 0 0 0 0 0 0 0 0 0 1 2 3 4 3 2 1 0 0
0 0 0 0 0 0 0 0 0 0 0 0 0 0 0 0 1 4 8 8 5 2 0 0 0 0 0 0 0 0 0 0 0 0 0 0 0 1 2 2 1 0 0 0
0 0 0 0 0 0 0 0 0 0 0 0 0 0 0 0 1 3 6 7 4 1 0 0 0 0 0 0 0 0 0 0 0 0 0 0 0 0 1 1 0 0 0 0
0 0 0 0 0 0 0 0 0 0 0 0 0 0 0 1 2 5 7 6 3 0 0 0 0 0 0 0 0 0 0 0 0 0 0 0 0 0 0 0 0 0 0 0
0 0 0 0 0 0 0 0 0 0 0 0 0 0 0 2 4 7 9 7 2 0 0 0 0 0 0 0 0 0 0 0 0 0 0 0 0 0 0 0 0 0 0 0
0 0 0 0 0 0 0 0 0 0 0 0 0 0 0 1 3 6 8 6 2 0 0 0 0 0 0 0 0 0 0 0 0 0 0 0 0 0 0 0 0 0 0 0
0 0 0 0 0 0 0 0 0 0 0 0 0 0 0 0 1 3 5 4 1 0 0 0 0 0 0 0 0 0 0 0 0 0 0 0 0 0 0 0 0 0 0 0
0 0 0 0 0 0 0 0 0 0 0 0 0 0 0 0 0 1 3 2 1 0 0 0 0 0 0 0 0 0 0 0 0 0 0 0 0 0 0 0 0 0 0 0
0 0 0 0 0 0 0 0 0 0 0 0 0 0 0 0 0 2 2 1 0 0 0 0 0 0 0 0 0 0 0 0 0 0 0 0 0 0 0 0 0 0 0 0
0 0 0 0 0 0 0 0 0 0 0 0 0 0 0 0 0 1 1 1 0 0 0 0 0 0 0 0 0 0 0 0 0 0 0 0 0 0 0 0 0 0 0 0
0 0 0 0 0 0 0 0 0 0 0 0 0 0 0 0 0 0 0 0 0 0 0 0 0 0 0 0 0 0 0 0 0 0 0 0 0 0 0 0 0 0 0 0
0 0 0 0 0 0 0 0 0 0 0 0 0 1 1 1 1 1 0 0 0 0 0 0 0 0 0 0 0 0 0 0 0 0 0 0 0 0 0 0 0 0 0 0
0 0 0 0 0 0 0 0 0 0 0 0 0 1 1 1 2 2 1 0 0 0 0 0 0 0 0 0 0 0 0 0 0 0 0 0 0 0 0 0 0 0 0 0
0 0 0 0 0 0 0 0 0 0 0 0 0 0 0 1 2 2 1 0 0 0 0 0 0 0 0 0 0 0 0 0 0 0 0 0 0 0 0 0 0 0 0 0
0 0 0 0 0 0 0 0 0 0 0 0 0 0 0 1 1 1 0 0 0 0 0 0 0 0 0 0 0 0 0 0 0 0 0 0 0 0 0 0 0 0 0 0
0 0 0 0 0 0 0 0 0 0 0 0 0 0 0 0 0 0 0 0 0 0 0 0 0 0 0 0 0 0 0 0 0 0 0 0 0 0 0 0 0 0 0 0
0 0 0 0 0 0 0 0 0 0 0 0 0 0 0 0 0 0 0 0 0 0 0 0 0 0 0 0 0 0 0 0 0 0 0 0 0 0 0 0 0 0 0 0
0 0 0 0 0 0 0 0 0 0 0 0 0 0 0 0 0 0 0 0 0 0 0 0 0 0 0 0 0 0 0 0 0 0 0 0 0 0 0 0 0 0 0 0
Wind_Speed
8 10 9 6 4 2 3 5 6 5 4 4 6 8 7 6 6 7 6 6 8 9 9 9 10 9 8 8 7 6 5 4 2 0 1 1 1 1 1 1 1 2 3 3
10 10 4 3 3 5 6 7 7 7 5 3 7 8 7 6 5 5 6 6 7 7 8 9 10 9 9 9 8 7 6 4 3 2 1 0 1 0 0 0 0 1 2 2
9 5 5 5 6 7 8 7 5 6 6 6 7 9 9 8 7 7 6 7 7 6 7 8 9 10 10 9 9 7 7 6 5 3 1 1 1 1 1 0 0 1 2 1
7 5 6 8 7 8 7 4 4 6 8 7 9 6 11 11 9 8 7 7 7 7 7 7 8 9 9 9 8 8 8 7 7 4 2 1 0 1 0 1 1 2 2 3
7 7 7 7 5 6 1 3 5 7 7 6 8 8 8 11 10 10 9 8 7 7 7 8 8 8 8 8 8 8 8 8 8 6 5 3 2 2 1 1 2 1 2 3
4 4 5 4 3 3 3 5 5 7 8 10 6 8 5 8 7 10 11 9 8 8 7 7 7 7 8 8 8 8 8 9 8 8 6 5 4 3 3 2 1 1 2 3
8 8 6 5 6 7 8 8 7 9 8 6 4 6 1 6 3 6 11 11 9 8 7 6 7 8 8 9 8 8 8 8 8 8 8 7 6 5 4 3 3 3 3 4
8 9 7 5 6 5 7 9 7 6 6 3 6 6 5 6 4 6 10 11 10 8 7 7 7 7 7 8 8 8 8 8 8 8 8 8 7 5 5 6 5 4 4 4
5 5 6 3 3 5 6 7 4 7 7 7 4 4 7 6 6 9 11 11 10 9 8 7 7 7 7 7 7 7 8 8 8 8 8 8 8 7 7 7 6 5 6 6
3 3 5 5 6 3 4 2 4 7 6 7 5 6 4 11 11 11 11 11 10 10 8 8 6 6 6 6 6 7 8 8 8 8 8 7 8 8 8 8 9 8 7 7
3 5 5 6 6 4 6 5 6 6 6 7 6 0 5 3 10 13 12 12 12 10 9 7 6 6 6 6 6 7 7 8 8 8 8 8 8 8 8 8 8 8 8 8
2 5 5 4 2 2 4 4 5 6 6 7 7 2 7 3 6 11 13 12 12 10 9 8 7 6 6 6 6 7 7 8 7 7 8 8 8 8 9 9 8 8 9 9
2 5 6 6 6 6 5 4 4 5 6 7 8 1 7 5 6 10 13 13 12 11 10 8 7 6 6 6 6 6 7 7 7 7 8 9 9 9 9 9 9 9 10 10
5 5 6 5 1 2 4 5 5 8 7 7 7 4 5 6 8 11 13 14 13 11 10 8 7 6 6 6 6 6 7 7 7 8 8 9 9 9 9 9 9 9 9 9
4 6 5 5 3 4 6 6 7 8 9 9 8 7 2 4 8 12 14 14 13 12 10 9 8 7 7 6 6 6 7 7 7 8 8 8 8 8 9 9 9 9 9 10
3 4 5 6 5 5 7 7 7 7 8 8 8 3 4 6 8 12 14 14 13 12 11 10 9 8 7 7 7 7 7 7 7 8 8 8 8 8 8 8 8 9 9 9
4 4 5 5 4 7 6 3 4 4 3 5 6 2 6 8 9 12 13 13 13 13 12 11 10 9 8 7 7 7 7 7 7 8 8 8 8 8 8 8 9 8 8 9
5 5 4 5 5 6 3 3 4 4 2 3 3 4 6 7 7 8 10 12 13 13 12 11 9 9 8 7 7 7 7 7 8 8 8 8 8 8 8 8 9 8 7 7
6 6 5 5 5 3 3 4 4 4 1 4 3 7 9 11 10 7 7 10 12 13 12 11 10 10 9 8 7 8 8 7 8 8 7 7 7 8 8 9 8 7 7 8
6 7 6 5 5 1 4 6 5 5 2 4 3 7 10 10 6 7 9 11 12 12 11 10 10 10 9 8 7 8 8 8 8 8 7 7 7 8 9 9 8 7 7 8
5 6 7 6 5 1 7 7 6 4 4 3 3 6 8 4 5 13 14 13 14 13 12 12 11 9 9 8 8 8 8 8 8 7 7 7 7 8 8 8 7 6 7 8
3 3 4 4 3 2 9 6 5 6 4 2 3 6 7 10 14 15 15 14 15 14 13 12 10 9 8 8 8 9 8 8 8 7 7 7 7 7 7 7 6 6 6 7
2 4 4 3 3 5 5 5 4 3 2 3 5 8 11 13 14 15 14 14 14 14 13 11 11 10 9 8 8 9 9 8 8 7 8 8 8 6 6 6 6 5 4 4
0 1 3 2 2 4 5 5 5 3 3 5 7 10 12 14 15 15 14 13 13 12 12 10 11 11 10 9 8 8 8 7 7 8 8 7 7 6 6 4 5 4 4 4
5 4 3 3 1 2 5 6 6 4 5 8 9 10 12 15 15 15 13 13 13 12 11 10 10 10 11 10 10 10 9 8 8 8 7 6 7 7 6 6 6 5 7 7
3 4 5 3 3 3 3 4 3 4 6 9 11 12 12 13 15 15 13 12 12 12 11 11 11 11 11 11 10 9 9 8 8 7 6 6 6 6 6 7 7 10 8 7
Wind_Direction
189 214 206 184 230 301 219 208 172 127 125 169 147 139 135 139 146 137 128 111 97 81 70 60 53 48 49 48 46 43 32 29 17 351 220 195 179 191 211 210 245 262 253 248
194 209 183 185 207 229 219 209 169 137 133 176 148 142 141 147 143 131 126 112 100 91 73 59 52 47 44 41 35 36 31 25 14 352 320 353 86 126 60 294 12 297 287 276
211 141 161 205 207 219 219 221 175 151 148 169 171 168 166 155 146 134 127 118 106 88 73 59 48 42 39 34 28 28 27 22 16 3 357 119 146 147 157 177 68 11 349 348
210 166 200 220 215 222 200 191 196 182 202 181 213 209 171 169 168 163 151 138 118 100 84 67 53 43 37 30 29 32 30 28 22 18 31 27 18 170 72 13 56 55 30 16
186 189 210 220 203 225 192 159 203 215 233 220 211 248 158 171 187 179 167 153 130 111 92 75 58 47 41 34 31 33 35 31 27 28 39 47 60 74 75 67 65 57 44 26
204 201 238 230 197 207 173 180 190 221 230 231 218 246 194 174 195 172 164 154 135 117 98 85 73 59 48 41 37 36 39 37 32 34 41 52 65 73 77 70 58 57 50 38
193 193 194 214 201 184 208 217 212 213 218 224 155 244 138 111 129 161 159 150 139 121 107 91 74 60 49 41 37 38 43 42 37 42 44 45 52 61 68 64 53 51 51 42
193 182 175 194 229 202 211 240 252 256 247 206 178 236 102 103 110 134 141 141 136 125 113 94 76 64 54 46 40 41 45 47 45 48 50 49 51 55 59 56 54 53 54 51
212 163 138 166 216 245 206 234 295 277 268 264 214 164 135 140 147 146 142 144 139 128 114 99 84 70 60 51 45 44 49 52 52 53 59 59 59 62 63 63 59 56 57 58
271 213 167 164 191 188 284 239 232 253 263 261 242 229 187 170 177 170 163 157 144 134 123 109 93 79 67 60 60 56 60 61 60 60 60 63 61 63 66 66 63 60 61 64
258 240 189 192 217 202 191 208 245 263 280 282 278 311 60 146 176 175 170 159 149 143 130 118 106 91 81 73 67 63 65 68 67 66 66 67 67 67 70 70 68 67 65 65
245 256 229 194 105 309 259 254 246 262 261 265 286 59 80 89 157 164 157 149 143 137 129 123 114 103 89 79 74 71 72 73 73 74 74 72 73 73 72 72 71 72 70 67
282 243 227 194 183 193 219 223 250 269 275 268 271 108 102 117 139 149 147 144 140 138 133 125 115 104 95 87 83 81 80 80 82 84 83 79 75 74 72 71 70 70 70 69
271 256 261 264 280 209 228 233 240 257 267 274 276 299 139 154 156 152 149 146 145 143 138 134 126 116 107 99 95 93 88 86 87 86 83 79 76 76 75 73 72 71 70 68
289 252 256 273 282 266 265 264 259 258 273 283 300 313 7 161 167 158 151 148 147 147 146 143 134 127 120 113 105 100 97 92 93 92 89 85 82 80 79 74 73 75 72 72
310 277 261 246 238 251 263 266 267 269 276 278 283 306 69 111 137 149 153 155 155 154 150 143 138 135 129 123 117 112 107 104 101 95 94 92 90 86 83 80 80 80 77 75
283 272 266 252 252 257 247 277 284 276 292 299 305 39 117 133 149 158 159 159 158 154 151 147 145 140 132 127 124 119 116 112 106 99 94 92 93 91 89 88 83 81 81 81
273 272 265 266 256 243 82 40 333 304 340 353 26 91 117 124 129 142 155 157 155 152 149 148 146 138 132 130 127 122 118 115 111 104 99 97 97 95 93 89 85 82 79 79
232 258 260 260 249 233 124 41 349 310 29 39 78 113 114 119 116 119 143 150 150 148 146 144 142 140 138 135 133 128 124 118 111 104 98 97 99 99 97 93 91 88 86 81
193 229 250 251 264 254 64 18 336 279 159 66 109 139 147 165 165 142 145 139 134 131 135 137 138 140 138 137 137 131 125 120 114 109 105 101 101 100 100 98 95 91 89 88
185 205 232 246 250 85 32 352 304 284 36 45 126 153 166 174 77 125 137 133 132 133 137 139 139 139 138 141 138 129 123 117 116 116 111 105 103 102 103 104 101 101 97 93
266 231 224 245 247 78 22 1 10 13 9 74 126 137 127 105 111 125 131 133 135 137 141 143 139 135 138 144 140 130 123 121 121 119 114 111 110 110 110 111 108 106 109 112
315 346 334 335 26 52 32 16 9 349 26 100 125 127 129 127 129 131 132 135 137 140 142 143 140 137 138 143 140 131 126 127 125 120 114 112 110 109 115 121 121 121 124 113
86 337 293 295 59 50 53 40 30 34 75 104 123 133 137 135 136 135 136 138 139 142 145 146 146 141 139 139 133 127 128 127 123 119 116 116 115 115 111 114 116 115 107 103
308 305 289 274 358 62 70 39 35 61 98 112 123 133 137 138 140 140 140 142 143 146 148 147 144 139 137 138 137 139 140 139 129 122 120 119 113 105 104 83 53 54 62 38
268 284 296 332 25 359 30 37 50 99 121 128 131 130 135 140 140 140 140 142 144 147 149 148 145 141 139 142 142 142 144 144 139 135 135 130 124 120 121 119 107 57 56 63